Weather in Kastraki

Greece     38°24′57″N   21°53′59″E
temp.,
°C
wind,
m/s
gust,
m/s
humid.,
%
clouds,
%
prec.,
mm/h
press.,
hPa
HPBL,
m
19 june, sat
sat1900:00+17n227212 0.0 101637
03:00+16nw227013 0.0 101537
06:00+15nnw227238 0.0 101440
09:00+22w11535 0.0 1014351
12:00+26sw233867 0.0 10132015
15:00+25sw2247100 0.1 10131022
18:00+23wnw115924 0.0 101278
21:00+19wnw11719 0.0 101334
20 june, sun
sun2000:00+19n22723 0.1 101417
03:00+18n11760 0.2 101320
06:00+17n21760 0.0 101319
09:00+24se115291 0.0 1012431
12:00+27ssw334012 0.0 10122007
15:00+26ssw2345100 0.0 1012836
18:00+26sw114676 0.0 1011665
21:00+20nw11679 0.0 101215
21 june, mon
mon2100:00+19ne11700 0.0 101311
03:00+19nne21710 0.0 101311
06:00+18n22713 0.0 101317
09:00+25ssw014977 0.0 1013332
12:00+29sw34365 0.0 10122011
15:00+31ssw35324 0.0 10112033
18:00+28sw334434 0.0 1012607
21:00+23wnw22646 0.1 101331
22 june, tue
tue2200:00+22ene1168100 0.1 101511
03:00+20nne227297 0.1 101413
06:00+21nne22685 0.0 101318
09:00+27w12490 0.0 1014308
12:00+32sw22320 0.0 10131192
15:00+34sw572723 0.0 10122110
18:00+29sw34361 0.0 1013690
21:00+24ese11520 0.0 101511
23 june, wed
wed2300:00+22n22520 0.0 101525
03:00+22n32515 0.0 101527
06:00+22n32420 0.0 101525
09:00+30w01290 0.0 1015246
12:00+35ssw34200 0.0 10142052
15:00+35ssw432122 0.0 10142043
18:00+30w113594 0.1 101599
21:00+19nne3375100 4.1 101880